Regional Weather Roundup
Issued by NWS

Home | Current Version | Previous Version | Graphics & Text | Print | Product List | Glossary On
Versions: 1 2 3 4 5 6 7 8 9 10 11 12 13 14 15 16 17 18 19 20 21 22 23 24 25 26 27 28 29 30 31 32 33 34 35 36 37 38 39 40 41 42 43 44 45 46 47 48 49 50
000
ASUS43 KBIS 250701
RWRND

NORTH DAKOTA REGIONAL WEATHER ROUNDUP
NATIONAL WEATHER SERVICE BISMARCK ND
200 AM CDT SAT APR 25 2015

NOTE: "FAIR" INDICATES FEW OR NO CLOUDS BELOW 12,000 FEET WITH NO
SIGNIFICANT WEATHER AND/OR OBSTRUCTIONS TO VISIBILITY.


NDZ001>003-009>011-017-250800-
NORTHWEST NORTH DAKOTA

CITY           SKY/WX    TMP DP  RH WIND       PRES   REMARKS
WILLISTON      MOCLDY    50  37  61 E6        29.65S
MINOT          CLEAR     39  36  89 E6        29.74S
MINOT AFB      CLEAR     40  40  99 SE12      29.73S
$$

NDZ018>021-031>035-040>046-250800-
SOUTHWEST NORTH DAKOTA

CITY           SKY/WX    TMP DP  RH WIND       PRES   REMARKS
BISMARCK       PTCLDY    41  39  93 NE7       29.73R
DICKINSON      CLEAR     43  37  79 E9        29.65R
GARRISON         N/A     44  40  85 E13       29.71R
HETTINGER ARPT CLEAR     42  36  79 E9        29.66R
$$

NDZ004>008-012>016-024-026-027-054-250800-
NORTHEAST NORTH DAKOTA

CITY           SKY/WX    TMP DP  RH WIND       PRES   REMARKS
GRAND FORKS    CLOUDY    45  34  65 E12       29.82F
GRND FRKS AFB  CLOUDY    44  34  67 SE9       29.82S
DEVILS LAKE    CLOUDY    45  37  76 SE15      29.78S
$$

NDZ022-023-025-028>030-036>039-047>053-250800-
SOUTHEAST NORTH DAKOTA

CITY           SKY/WX    TMP DP  RH WIND       PRES   REMARKS
FARGO          CLOUDY    45  36  70 E8        29.79S
JAMESTOWN      CLOUDY    43  40  89 E9        29.75F
$$



USA.gov is the U.S. government's official web portal to all federal, state and local government web resources and services.